Observations for Trim Patrick St
| Time | AQI | Temp °C | Hum % | Pres Pa | CO μg/m³ | H₂S μg/m³ | NO μg/m³ | NO₂ μg/m³ | O₃ μg/m³ | SO₂ μg/m³ | PM1 μg/m³ | PM2.5 μg/m³ | PM10 μg/m³ |
|---|---|---|---|---|---|---|---|---|---|---|---|---|---|
| Thursday 27 August 2026 | |||||||||||||
| 11:48 | 3 | 19.8 | 77 | 38,460 | 0.03 | 0 | 1.96 | 10.65 | 50.75 | 0 | 21.72 | 27.98 | 30.78 |
| 11:47 | 3 | 19.8 | 77 | 38,460 | 0.06 | 0 | 1.29 | 12.69 | 46.42 | 0 | 21.72 | 30.08 | 32.91 |
| 11:46 | 3 | 19.8 | 77 | 38,460 | 0.04 | 0 | 1.33 | 9.77 | 56.69 | 0 | 21.72 | 27.97 | 30.76 |
| 11:45 | 3 | 19.8 | 78 | 38,460 | 0.04 | 0 | 1.17 | 10.75 | 55.9 | 0 | 20.86 | 29.35 | 30.01 |
| 11:44 | 3 | 19.7 | 78 | 38,460 | 0.04 | 0 | 0.92 | 12.97 | 56.3 | 0 | 20 | 27.21 | 29.93 |
| 11:43 | 3 | 19.7 | 78 | 38,460 | 0.03 | 0 | 0.92 | 9.42 | 54.63 | 0 | 20.86 | 28.63 | 31.5 |
| 11:42 | 3 | 19.7 | 78 | 38,460 | 0.01 | 0 | 1 | 10 | 51.69 | 0 | 20 | 29.34 | 31.4 |
| 11:41 | 3 | 19.7 | 78 | 38,460 | 0 | 0 | 0.9 | 9.68 | 55.41 | 0 | 18.29 | 27.24 | 29.96 |
| 11:40 | 3 | 19.7 | 78 | 38,460 | 0.01 | 0 | 0.91 | 9.31 | 55.65 | 0 | 20.86 | 27.93 | 30.72 |
| 11:39 | 3 | 19.7 | 78 | 38,460 | 0.01 | 0 | 1.66 | 12.61 | 56.88 | 0 | 19.14 | 26.53 | 29.18 |
| 11:38 | 3 | 19.7 | 78 | 38,460 | 0 | 0 | 1.44 | 11.6 | 56.34 | 0 | 20 | 28.62 | 29.95 |
| 11:37 | 3 | 19.7 | 78 | 38,460 | 0.03 | 0 | 1.25 | 10.06 | 55.06 | 0 | 20 | 27.2 | 28.51 |
| 11:36 | 3 | 19.7 | 78 | 38,460 | 0 | 0.22 | 1.56 | 23.35 | 36.59 | 1.34 | 22.57 | 31.41 | 32.72 |
| 11:35 | 3 | 19.6 | 78 | 38,460 | 0 | 0 | 1.42 | 8.09 | 56.6 | 0 | 20.86 | 26.51 | 29.16 |
| 11:34 | 3 | 19.6 | 78 | 38,460 | 0 | 0 | 1.16 | 8.92 | 52.68 | 0 | 20.86 | 29.3 | 30.6 |
| 11:33 | 3 | 19.6 | 78 | 38,460 | 0.01 | 0 | 1.14 | 10.8 | 61.64 | 0 | 22.57 | 31.45 | 34.23 |
| 11:31 | 3 | 19.6 | 78 | 38,460 | 0.01 | 0 | 1.49 | 12.26 | 47.73 | 0 | 20.86 | 29.26 | 31.92 |
| 11:29 | 3 | 19.6 | 78 | 38,460 | 0.02 | 0.8 | 1.32 | 14.76 | 55.08 | 0 | 21.72 | 31.41 | 33.43 |
| 11:28 | 3 | 19.6 | 79 | 38,460 | 0.02 | 0.07 | 1.64 | 14.23 | 55.12 | 0 | 21.72 | 29.21 | 29.72 |
| 11:24 | 3 | 19.6 | 78 | 38,460 | 0 | 0 | 0.9 | 6.73 | 49.38 | 0.71 | 21.72 | 29.93 | 30.45 |